�������l�o���
Date,Time,MP-1(��Sv/h),MP-2(��Sv/h),MP-3(��Sv/h),MP-4(��Sv/h),MP-5(��Sv/h),MP-6(��Sv/h),MP-7(��Sv/h),MP-8(��Sv/h),����,����(m/s),���J
2021/10/28,00:00,0.574,0.855,0.547,1.035,0.729,0.355,0.610,0.575,�k��,4.4,��
2021/10/28,00:10,0.575,0.854,0.546,1.040,0.728,0.356,0.609,0.575,�k��,5.1,��
2021/10/28,00:20,0.573,0.856,0.545,1.038,0.728,0.353,0.610,0.574,���k��,4.2,��
2021/10/28,00:30,0.573,0.856,0.547,1.038,0.727,0.353,0.609,0.575,���k��,5.8,��
2021/10/28,00:40,0.572,0.855,0.546,1.037,0.727,0.353,0.608,0.575,�k��,5.6,��
2021/10/28,00:50,0.572,0.854,0.544,1.039,0.729,0.353,0.611,0.575,�k��,5.1,��
2021/10/28,01:00,0.575,0.857,0.545,1.040,0.727,0.353,0.610,0.574,�k��,4.0,��
2021/10/28,01:10,0.572,0.857,0.546,1.038,0.728,0.352,0.610,0.573,�k��,3.4,��
2021/10/28,01:20,0.574,0.858,0.544,1.039,0.727,0.354,0.610,0.573,�k��,4.0,��
2021/10/28,01:30,0.574,0.854,0.545,1.041,0.726,0.354,0.611,0.577,���k��,2.5,��
2021/10/28,01:40,0.574,0.857,0.546,1.038,0.728,0.353,0.609,0.574,��,3.7,��
2021/10/28,01:50,0.574,0.856,0.545,1.038,0.726,0.353,0.609,0.575,���k��,2.9,��
2021/10/28,02:00,0.572,0.857,0.547,1.038,0.728,0.353,0.609,0.575,�k��,3.1,��
2021/10/28,02:10,0.573,0.855,0.546,1.037,0.726,0.355,0.609,0.574,�k��,2.8,��
2021/10/28,02:20,0.573,0.856,0.547,1.041,0.728,0.353,0.609,0.574,�k��,4.1,��
2021/10/28,02:30,0.573,0.856,0.547,1.040,0.727,0.353,0.609,0.574,���k��,5.3,��
2021/10/28,02:40,0.573,0.857,0.546,1.038,0.727,0.353,0.610,0.574,���k��,3.1,��
2021/10/28,02:50,0.575,0.856,0.546,1.038,0.728,0.353,0.611,0.574,��,2.2,��
2021/10/28,03:00,0.574,0.856,0.546,1.042,0.728,0.351,0.609,0.575,��,1.9,��
2021/10/28,03:10,0.575,0.855,0.545,1.040,0.727,0.353,0.610,0.573,��,1.5,��
2021/10/28,03:20,0.572,0.854,0.545,1.040,0.725,0.353,0.608,0.575,��,2.8,��
2021/10/28,03:30,0.574,0.857,0.546,1.040,0.727,0.353,0.611,0.574,�쐼,2.3,��
2021/10/28,03:40,0.575,0.854,0.546,1.039,0.728,0.353,0.611,0.574,�쐼,1.5,��
2021/10/28,03:50,0.573,0.855,0.544,1.039,0.728,0.353,0.609,0.573,��,2.5,��
2021/10/28,04:00,0.573,0.855,0.547,1.039,0.729,0.353,0.610,0.574,��,1.7,��
2021/10/28,04:10,0.574,0.855,0.545,1.040,0.728,0.353,0.611,0.573,��쓌,1.5,��
2021/10/28,04:20,0.573,0.858,0.545,1.042,0.728,0.354,0.609,0.575,��,1.4,��
2021/10/28,04:30,0.573,0.854,0.546,1.041,0.728,0.353,0.610,0.575,��쐼,1.1,��
2021/10/28,04:40,0.573,0.857,0.546,1.039,0.727,0.353,0.610,0.576,��쐼,1.4,��
2021/10/28,04:50,0.572,0.857,0.545,1.039,0.729,0.352,0.609,0.576,��쐼,0.9,��
2021/10/28,05:00,0.574,0.854,0.547,1.041,0.727,0.353,0.610,0.574,�쐼,1.2,��
2021/10/28,05:10,0.574,0.855,0.545,1.041,0.727,0.352,0.611,0.575,��,1.9,��
2021/10/28,05:20,0.573,0.853,0.546,1.039,0.727,0.354,0.610,0.575,�k��,1.7,��
2021/10/28,05:30,0.573,0.855,0.544,1.041,0.728,0.353,0.608,0.575,�k�k��,2.3,��
2021/10/28,05:40,0.574,0.854,0.544,1.041,0.728,0.354,0.609,0.575,�k�k��,2.0,��
2021/10/28,05:50,0.573,0.853,0.547,1.039,0.728,0.352,0.612,0.575,���k��,2.6,��
2021/10/28,06:00,0.572,0.855,0.545,1.039,0.728,0.354,0.610,0.576,��,4.4,��
2021/10/28,06:10,0.572,0.856,0.546,1.040,0.727,0.353,0.611,0.574,���k��,4.9,��
2021/10/28,06:20,0.573,0.856,0.545,1.040,0.729,0.353,0.611,0.576,���k��,5.3,��
2021/10/28,06:30,0.572,0.854,0.545,1.042,0.729,0.353,0.610,0.575,���k��,4.3,��
2021/10/28,06:40,0.574,0.854,0.545,1.038,0.729,0.354,0.610,0.577,��,3.3,��
2021/10/28,06:50,0.574,0.856,0.546,1.039,0.727,0.354,0.610,0.576,��,4.4,��
2021/10/28,07:00,0.573,0.857,0.545,1.038,0.727,0.352,0.610,0.575,��,6.2,��
2021/10/28,07:10,0.572,0.856,0.547,1.038,0.727,0.354,0.610,0.575,��,6.0,��
2021/10/28,07:20,0.575,0.856,0.546,1.039,0.728,0.352,0.611,0.573,��,4.8,��
2021/10/28,07:30,0.573,0.855,0.548,1.041,0.730,0.355,0.610,0.574,���k��,5.3,��
2021/10/28,07:40,0.572,0.856,0.547,1.042,0.729,0.353,0.609,0.576,���k��,5.4,��
2021/10/28,07:50,0.575,0.857,0.548,1.043,0.728,0.354,0.612,0.576,��,4.6,��
2021/10/28,08:00,0.574,0.858,0.547,1.039,0.729,0.354,0.611,0.575,���k��,6.5,��
2021/10/28,08:10,0.574,0.857,0.548,1.041,0.730,0.354,0.612,0.576,���k��,5.6,��
2021/10/28,08:20,0.577,0.858,0.547,1.041,0.728,0.353,0.612,0.577,��,6.0,��
2021/10/28,08:30,0.576,0.856,0.548,1.045,0.730,0.355,0.610,0.577,���k��,3.9,��
2021/10/28,08:40,0.575,0.854,0.549,1.040,0.729,0.354,0.611,0.576,�k��,4.2,��
2021/10/28,08:50,0.574,0.854,0.547,1.041,0.730,0.354,0.609,0.577,�k��,4.3,��
2021/10/28,09:00,0.573,0.853,0.547,1.040,0.730,0.354,0.611,0.575,���k��,7.3,��
2021/10/28,09:10,0.572,0.853,0.547,1.043,0.728,0.355,0.611,0.576,���k��,5.6,��
2021/10/28,09:20,0.574,0.854,0.547,1.041,0.729,0.353,0.611,0.576,���k��,3.5,��
2021/10/28,09:30,0.572,0.852,0.548,1.042,0.729,0.354,0.612,0.577,�k��,3.7,��
2021/10/28,09:40,0.573,0.856,0.547,1.045,0.730,0.352,0.611,0.576,�k��,4.1,��
2021/10/28,09:50,0.574,0.856,0.548,1.042,0.727,0.352,0.613,0.576,���k��,6.4,��
2021/10/28,10:00,0.575,0.856,0.547,1.043,0.727,0.352,0.613,0.576,�k��,5.8,��
2021/10/28,10:10,0.576,0.855,0.549,1.045,0.724,0.351,0.612,0.576,�k�k��,4.8,��
2021/10/28,10:20,0.574,0.856,0.546,1.044,0.725,0.353,0.612,0.576,�k��,4.2,��
2021/10/28,10:30,0.577,0.856,0.545,1.046,0.723,0.354,0.611,0.575,�k��,3.5,��
2021/10/28,10:40,0.574,0.856,0.546,1.043,-,0.352,0.612,0.575,���k��,5.8,��
2021/10/28,10:50,0.577,0.856,0.547,1.045,-,0.353,0.613,0.576,���k��,7.2,��
2021/10/28,11:00,0.576,0.858,0.548,1.044,-,0.352,0.611,0.574,���k��,5.9,��
2021/10/28,11:10,0.577,0.855,0.548,1.046,-,0.353,0.613,0.574,���k��,4.8,��
2021/10/28,11:20,0.576,0.859,0.548,1.044,-,0.353,0.613,0.576,�k��,4.8,��
2021/10/28,11:30,0.577,0.861,0.548,1.045,-,0.353,0.613,0.574,�k��,6.0,��
2021/10/28,11:40,0.577,0.860,0.548,1.044,-,0.353,0.613,0.574,�k�k��,5.7,��
2021/10/28,11:50,0.576,0.860,0.548,1.048,-,0.353,0.613,0.575,�k�k��,7.3,��
2021/10/28,12:00,0.576,0.858,0.549,1.046,-,0.354,0.612,0.577,�k�k��,7.5,��
2021/10/28,12:10,0.577,0.862,0.549,1.045,-,0.354,0.614,0.575,�k�k��,6.7,��
2021/10/28,12:20,0.576,0.861,0.549,1.046,-,0.354,0.613,0.575,�k�k��,5.3,��
2021/10/28,12:30,0.578,0.861,0.548,1.047,-,0.353,0.613,0.575,�k�k��,5.3,��
2021/10/28,12:40,0.577,0.859,0.548,1.047,-,0.353,0.612,0.575,�k,7.0,��
2021/10/28,12:50,0.578,0.860,0.549,1.049,-,0.352,0.613,0.575,�k�k��,7.4,��
2021/10/28,13:00,0.579,0.862,0.549,1.049,-,0.354,0.613,0.576,�k�k��,6.2,��
2021/10/28,13:10,0.580,0.860,0.549,1.049,-,0.353,0.613,0.575,�k�k��,5.6,��
2021/10/28,13:20,0.577,0.859,0.550,1.048,-,0.354,0.613,0.576,�k��,7.7,��
2021/10/28,13:30,0.577,0.860,0.549,1.047,-,0.352,0.613,0.576,�k��,6.8,��
2021/10/28,13:40,0.578,0.862,0.549,1.049,-,0.352,0.612,0.576,�k��,5.1,��
2021/10/28,13:50,0.577,0.861,0.548,1.049,-,0.353,0.613,0.577,�k��,7.4,��
2021/10/28,14:00,0.578,0.859,0.549,1.048,-,0.354,0.613,0.576,�k��,7.1,��
2021/10/28,14:10,0.577,0.861,0.548,1.052,-,0.353,0.613,0.577,���k��,5.2,��
2021/10/28,14:20,0.578,0.861,0.547,1.047,-,0.353,0.613,0.576,�k��,4.5,��
2021/10/28,14:30,0.577,0.859,0.549,1.048,-,0.353,0.612,0.575,�k��,3.3,��
2021/10/28,14:40,0.578,0.859,0.549,1.049,-,0.353,0.612,0.575,��,3.6,��
2021/10/28,14:50,0.578,0.860,0.549,1.049,-,0.354,0.613,0.576,��,3.8,��
2021/10/28,15:00,0.576,0.861,0.550,1.050,-,0.354,0.612,0.575,��,4.3,��
2021/10/28,15:10,0.578,0.861,0.549,1.051,0.734,0.354,0.611,0.577,���k��,3.8,��
2021/10/28,15:20,0.577,0.862,0.548,1.051,0.734,0.354,0.611,0.575,���k��,2.6,��
2021/10/28,15:30,0.577,0.862,0.550,1.051,0.734,0.354,0.612,0.577,���k��,3.3,��
2021/10/28,15:40,0.577,0.861,0.548,1.049,0.735,0.354,0.613,0.576,�k��,3.4,��
2021/10/28,15:50,0.576,0.861,0.546,1.052,0.736,0.355,0.611,0.577,�k��,4.1,��
2021/10/28,16:00,0.576,0.862,0.548,1.049,0.734,0.355,0.614,0.575,�k��,4.7,��
2021/10/28,16:10,0.578,0.864,0.549,1.050,0.735,0.355,0.611,0.576,�k��,4.1,��
2021/10/28,16:20,0.576,0.865,0.549,1.050,0.735,0.355,0.613,0.577,�k��,3.9,��
2021/10/28,16:30,0.575,0.864,0.550,1.048,0.736,0.354,0.612,0.577,�k��,6.7,��
2021/10/28,16:40,0.578,0.864,0.551,1.053,0.737,0.354,0.612,0.578,���k��,5.8,��
2021/10/28,16:50,0.579,0.865,0.552,1.049,0.738,0.353,0.613,0.578,���k��,5.8,��
2021/10/28,17:00,0.578,0.864,0.553,1.048,0.737,0.355,0.614,0.579,���k��,6.5,��
2021/10/28,17:10,0.578,0.866,0.550,1.050,0.737,0.354,0.613,0.577,���k��,8.7,��
2021/10/28,17:20,0.580,0.865,0.550,1.049,0.739,0.355,0.612,0.578,���k��,7.9,��
2021/10/28,17:30,0.580,0.864,0.551,1.049,0.737,0.355,0.613,0.578,��,5.5,��
2021/10/28,17:40,0.580,0.867,0.551,1.050,0.739,0.355,0.614,0.578,���k��,5.9,��
2021/10/28,17:50,0.578,0.867,0.551,1.049,0.738,0.354,0.613,0.577,���k��,6.7,��
2021/10/28,18:00,0.579,0.865,0.550,1.052,0.739,0.354,0.614,0.578,�k��,5.8,��
2021/10/28,18:10,0.580,0.865,0.550,1.052,0.740,0.353,0.614,0.578,���k��,5.7,��
2021/10/28,18:20,0.578,0.864,0.550,1.049,0.737,0.353,0.614,0.576,�k��,3.3,��
2021/10/28,18:30,0.579,0.864,0.552,1.051,0.736,0.355,0.616,0.578,���k��,7.1,��
2021/10/28,18:40,0.578,0.867,0.550,1.050,0.737,0.354,0.617,0.578,���k��,7.0,��
2021/10/28,18:50,0.579,0.863,0.551,1.052,0.740,0.355,0.615,0.578,�k��,6.3,��
2021/10/28,19:00,0.578,0.867,0.550,1.048,0.736,0.354,0.616,0.577,�k��,4.8,��
2021/10/28,19:10,0.578,0.864,0.550,1.050,0.737,0.355,0.615,0.577,�k��,3.9,��
2021/10/28,19:20,0.576,0.865,0.551,1.048,0.738,0.353,0.615,0.577,���k��,5.6,��
2021/10/28,19:30,0.578,0.864,0.550,1.045,0.737,0.353,0.615,0.577,���k��,5.7,��
2021/10/28,19:40,0.578,0.865,0.551,1.044,0.737,0.355,0.615,0.578,�k��,6.4,��
2021/10/28,19:50,0.578,0.867,0.551,1.047,0.736,0.353,0.616,0.578,�k�k��,6.4,��
2021/10/28,20:00,0.580,0.865,0.551,1.048,0.737,0.355,0.613,0.578,�k��,5.2,��
2021/10/28,20:10,0.578,0.866,0.549,1.051,0.738,0.352,0.615,0.578,���k��,5.5,��
2021/10/28,20:20,0.579,0.867,0.552,1.052,0.737,0.354,0.615,0.578,���k��,5.8,��
2021/10/28,20:30,0.579,0.865,0.550,1.051,0.737,0.353,0.615,0.578,���k��,7.6,��
2021/10/28,20:40,0.577,0.865,0.553,1.052,0.738,0.354,0.615,0.578,���k��,8.2,��
2021/10/28,20:50,0.577,0.864,0.550,1.052,0.736,0.354,0.615,0.576,���k��,9.1,��
2021/10/28,21:00,0.579,0.864,0.550,1.051,0.735,0.354,0.615,0.577,�k��,6.9,��
2021/10/28,21:10,0.577,0.865,0.551,1.049,0.738,0.354,0.614,0.579,�k��,4.3,��
2021/10/28,21:20,0.577,0.867,0.550,1.050,0.737,0.354,0.615,0.577,�k��,7.2,��
2021/10/28,21:30,0.578,0.865,0.549,1.050,0.739,0.352,0.615,0.578,�k��,7.1,��
2021/10/28,21:40,0.579,0.865,0.550,1.051,0.738,0.353,0.615,0.578,�k��,6.9,��
2021/10/28,21:50,0.580,0.865,0.549,1.051,0.739,0.354,0.616,0.579,�k��,7.5,��
2021/10/28,22:00,0.578,0.865,0.550,1.052,0.739,0.352,0.615,0.578,�k��,7.1,��
2021/10/28,22:10,0.577,0.863,0.550,1.051,0.738,0.353,0.615,0.578,���k��,5.4,��
2021/10/28,22:20,0.577,0.865,0.550,1.052,0.739,0.354,0.615,0.576,�k��,7.8,��
2021/10/28,22:30,0.577,0.865,0.551,1.050,0.737,0.354,0.615,0.578,�k��,6.4,��
2021/10/28,22:40,0.579,0.864,0.550,1.049,0.738,0.356,0.617,0.578,�k��,5.1,��
2021/10/28,22:50,0.578,0.866,0.552,1.047,0.736,0.354,0.616,0.576,�k��,4.7,��
2021/10/28,23:00,0.578,0.865,0.549,1.048,0.739,0.353,0.616,0.578,�k�k��,4.0,��
2021/10/28,23:10,0.576,0.865,0.552,1.051,0.738,0.354,0.615,0.577,�k�k��,3.1,��
2021/10/28,23:20,0.577,0.865,0.549,1.050,0.737,0.355,0.616,0.577,�k��,3.3,��
2021/10/28,23:30,0.577,0.866,0.549,1.052,0.737,0.354,0.616,0.578,�k��,5.9,��
2021/10/28,23:40,0.576,0.865,0.551,1.052,0.738,0.354,0.616,0.577,�k�k��,7.5,��
2021/10/28,23:50,0.578,0.864,0.550,1.052,0.739,0.354,0.615,0.578,�k��,10.2,��
